Find Starlink 3580

NORAD ID: 51781 Int'l Des: 2022-017 Owner: SPXS Country: US Constellation: starlink operational
LEOCIRCULAR

現在のビュー

3D地球を読み込み中...

About Starlink 3580

Starlink 3580 (NORAD 51781) is a starlink constellation satellite (v1.5) launched Feb 25, 2022 by SPXS of US. It operates in LEO, CIRCULAR orbit with a mass of 297.00 kg.

Starlink 3580について

説明を読み込み中...

次回通過

Passes for default location (London). Set your location on the main map for personalized predictions.

高度履歴

Loading altitude history...

軌道要素

1 51781U 22017P 26171.45118954 .00000410 00000-0 43825-4 0 9999
2 51781 53.1595 237.6517 0001166 84.5224 275.5901 15.08836453237938
Epoch: Jun 20, 2026 • Age: 39 hours

現在のステータス

高度 555.2 km
速度 7.58 km/s
衛星直下点 -43.81°S, 155.05°E
打ち上げ日 Feb 25, 2022
運用期間 4.3 years
タイプ internet

技術仕様

分類 Payload
質量 297.00 kg
乾燥質量 275.00 kg
総質量 297.00 kg
長さ 0.20 m
直径 2.80 m
スパン 9.00 m
形状 Box + pan
製造者 SPXS
バスタイプ Starlink
フェーズステータス In Orbit
所有者/国 SPXS/US

Most Searched